Starlink 35729

operational
NORAD ID: 66837 Int'l Des: 2025-280 Owner: SPXS Country: US Constellation: starlink
LEOCIRCULAR

About Starlink 35729

Description loading...

Live Position

Loading 3D Globe...

Upcoming Passes

Altitude History

Altitude vs Time

uPlot chart will show altitude changes over time

Two-Line Element Set

1 66837U 25280S 26047.34307925 .00007792 00000-0 65978-3 0 9992
2 66837 70.0005 28.4661 0003442 271.0517 89.0248 14.98348515 12874
Epoch: Feb 16, 2026 • Age: 15 hours

Current Status

Altitude 575.9 km
Velocity 7.57 km/s
Sub-Earth Point 27.20°N, 59.32°E
Launch Date Dec 2, 2025
Age 0.2 years
Type internet

Technical Details

Classification Payload
Mass 575.00 kg
Dry Mass 530.00 kg
Total Mass 575.00 kg
Length 0.30 m
Diameter 4.10 m
Span 29.00 m
Shape Box + pan
Manufacturer SPXS
Bus Type Starlink V2MO
Phase Status In Orbit
Owner/State SPXS/US

Large Constellations

Loading constellations...